Other Surface Observations
Issued by NWS Tucson, AZ

Home | Current Version | Previous Version | Text Only | Print | Product List | Glossary On
Versions: 1 2 3 4 5 6 7 8 9 10 11 12 13 14 15 16 17 18 19 20 21 22 23 24 25 26 27 28 29 30 31 32 33 34 35 36 37 38 39 40 41 42 43 44 45 46 47 48 49 50
000
SXUS55 KTWC 280416
OSOTWC

WEATHER ROUNDUP FOR SOUTHEAST ARIZONA
NATIONAL WEATHER SERVICE TUCSON AZ
915 PM MST SUN JUL 27 2014

AZZ504>506-514-280515-
LOCATION       SKY/WX    TMP DP  RH WIND       PRES   REMARKS
TUCSON         CLOUDY    85  58  39 NE23G40   30.09R
DAVIS-MONTHAN  MOCLDY    82  61  49 NE25G41   30.07R
CHILDRENS PARK N/A       94  56  28 NW6               PIMA CO DEQ
ALVERNON/22ND  N/A      N/A N/A N/A N/A               PIMA CO DEQ
CHERRY/GLENN   N/A      N/A N/A N/A N/A               PIMA CO DEQ
TANGERINE      N/A       93 N/A N/A N5                PIMA CO DEQ
CONTL RANCH    N/A       95  57  28 NW6               PIMA CO DEQ
GRANT/1ST      N/A       93  56  29 NW5               PIMA CO DEQ
CRAYCROFT/22ND N/A      N/A N/A N/A N/A               PIMA CO DEQ
GOLFLINKS/KOLB N/A      N/A N/A N/A N/A               PIMA CO DEQ
AJO/12TH       N/A       95  56  27 NW5               PIMA CO DEQ
SAGUARO EAST   N/A      N/A N/A N/A N/A               PIMA CO DEQ
FAIRGROUNDS    N/A       90 N/A N/A NW6               PIMA CO DEQ
SAGUARO        N/A       92  56  30 NW4G11            *SABINO CYN
SAN CARLOS     N/A       77  59  54 SE23G39           *SAN CARLOS
GREEN VALLEY   N/A       91  56  31 W4                PIMA CO DEQ
HORSE CAMP CYN N/A       77  54  45 SE27G41           *ARAVAIPA CYN
RINCON MTNS    N/A       56  54  94 NE9G20            *NR MANNING CAMP
$$

AZZ509>511-280515-
LOCATION       SKY/WX    TMP DP  RH WIND       PRES   REMARKS
SAFFORD        LGT RAIN  71  65  81 NW13      30.16R
STRAY HORSE    N/A       62  47  58 W8G16             *
TRAIL CABIN    N/A       65  55  71 W5G16             *N OF GRANVILLE
BLACK HILLS    N/A       71  67  86 E2G21             *N OF FT THOMAS
DRY LAKE       N/A       57  53  85 SW4G25            *NATANES MTNS
NOON CREEK     N/A       64  59  85 SW8G13            *PINALENO MTNS
COLUMBINE      N/A       49  46  89 NE3G14            *PINALENO MTNS
GUTHRIE        N/A       61  55  80 W27G39            *SW OF GUTHRIE
$$

AZZ502-503-513-280515-
LOCATION       SKY/WX    TMP DP  RH WIND       PRES   REMARKS
NOGALES        MOCLDY    84  61  45 W3        30.14R
SELLS          N/A       89  61  39 W7G15             *
SASABE         N/A       82  69  65 W5                *ALTAR VLY
HOPKINS        N/A       67  57  71 W11G19            *SANTA RITA MTNS
CARR CYN       N/A       74  61  63 W2G10             *W OF HEREFORD
$$

AZZ507-508-512-280515-
LOCATION       SKY/WX    TMP DP  RH WIND       PRES   REMARKS
SIERRA VISTA   TSTM      71  60  68 E14G28    30.27R
DOUGLAS        CLOUDY    71  60  68 W13       30.19F
EMPIRE MTNS    N/A       72  53  52 N10G23            *LAS CIENEGAS NCA
MULESHOE RANCH N/A       73  53  50 E13G29            *PRESERVE
HEADQUARTERS   N/A       64  61  91 E2G13             *CHIRICAHUA MTNS
$$

.............................NOTES.............................
THIS IS AN AUTOMATED COLLECTIVE WITH MINIMAL QUALITY CONTROL.
PIMA CO DEQ SITES HAVE NONSTANDARD WIND SENSOR HEIGHTS.
PIMA CO DEQ SITES DO NOT REPORT WIND GUSTS.
* INDICATES WIND SENSORS LOCATED AT 20 FEET INSTEAD OF 33 FEET.
..............................KEY..............................
SKY/WX - SKY CONDITION/WEATHER
TMP    - TEMPERATURE IN FAHRENHEIT
DP     - DEWPOINT IN FAHRENHEIT
RH     - RELATIVE HUMIDITY IN PERCENT
WIND   - DIRECTION AND SPEED IN MILES PER HOUR (MPH)
VRB    - VARIABLE WIND DIRECTION
PRES   - MEAN SEA LEVEL PRESSURE IN INCHES OF MERCURY
         F - FALLING PRESSURE   R - RISING PRESSURE
         S - STEADY PRESSURE
VSB    - VISIBILITY IN MILES
HX     - HEAT INDEX IN FAHRENHEIT
WCI    - WIND CHILL INDEX IN FAHRENHEIT
N/A    - NOT AVAILABLE
AFB    - AIR FORCE BASE
         DAVIS-MONTHAN IS DAVIS-MONTHAN AIR FORCE BASE
CYN    - CANYON
MTNS   - MOUNTAINS
NCA    - NATIONAL CONSERVATION AREA
NR     - NEAR
VLY    - VALLEY
CONTL  - CONTINENTAL
PIMA CO DEQ - PIMA COUNTY DEPT OF ENVIRONMENTAL QUALITY



USA.gov is the U.S. government's official web portal to all federal, state and local government web resources and services.